TimeCST,TemperatureF,Dew PointF,Humidity,Sea Level PressureIn,VisibilityMPH,Wind Direction,Wind SpeedMPH,Gust SpeedMPH,PrecipitationIn,Events,Conditions,WindDirDegrees,DateUTC
12:15 AM,30.9,27.9,88,30.35,10.0,West,6.9,-,N/A,,Clear,270,2013-01-06 06:15:00
12:35 AM,30.6,27.5,88,30.36,10.0,WNW,5.8,-,N/A,,Clear,290,2013-01-06 06:35:00
12:55 AM,30.2,27.3,89,30.36,10.0,WNW,5.8,-,N/A,,Clear,290,2013-01-06 06:55:00
1:15 AM,29.1,26.4,90,30.36,10.0,West,4.6,-,N/A,,Clear,270,2013-01-06 07:15:00
1:35 AM,28.4,26.2,92,30.36,10.0,WNW,6.9,-,N/A,,Clear,290,2013-01-06 07:35:00
1:55 AM,29.7,27.3,91,30.36,10.0,WNW,6.9,-,N/A,,Clear,290,2013-01-06 07:55:00
2:15 AM,30.6,27.5,88,30.37,10.0,WNW,8.1,-,N/A,,Clear,300,2013-01-06 08:15:00
2:35 AM,30.2,27.1,88,30.37,10.0,WNW,8.1,-,N/A,,Clear,300,2013-01-06 08:35:00
2:55 AM,29.8,27.0,89,30.37,10.0,NW,5.8,-,N/A,,Clear,320,2013-01-06 08:55:00
3:15 AM,29.3,26.4,89,30.38,10.0,NW,5.8,-,N/A,,Clear,310,2013-01-06 09:15:00
3:35 AM,28.4,25.7,90,30.38,10.0,NW,4.6,-,N/A,,Clear,310,2013-01-06 09:35:00
3:55 AM,28.4,25.5,89,30.39,10.0,NW,6.9,-,N/A,,Clear,310,2013-01-06 09:55:00
4:15 AM,27.5,24.4,88,30.39,10.0,WNW,4.6,-,N/A,,Clear,300,2013-01-06 10:15:00
4:35 AM,26.6,23.9,90,30.40,10.0,West,4.6,-,N/A,,Clear,280,2013-01-06 10:35:00
4:55 AM,26.6,23.9,90,30.40,10.0,West,5.8,-,N/A,,Clear,280,2013-01-06 10:55:00
5:35 AM,25.7,23.4,91,30.40,10.0,West,4.6,-,N/A,,Clear,280,2013-01-06 11:35:00
5:55 AM,25.7,23.4,91,30.41,10.0,West,6.9,-,N/A,,Clear,270,2013-01-06 11:55:00
6:15 AM,25.5,23.0,90,30.42,10.0,West,6.9,-,N/A,,Clear,260,2013-01-06 12:15:00
6:35 AM,25.2,22.8,91,30.43,10.0,West,5.8,-,N/A,,Clear,260,2013-01-06 12:35:00
6:55 AM,25.0,22.8,91,30.43,10.0,West,5.8,-,N/A,,Clear,260,2013-01-06 12:55:00
7:15 AM,24.8,22.6,91,30.44,10.0,West,6.9,-,N/A,,Clear,270,2013-01-06 13:15:00
7:35 AM,24.8,22.5,91,30.45,10.0,West,5.8,-,N/A,,Clear,270,2013-01-06 13:35:00
7:55 AM,24.8,22.5,91,30.45,10.0,West,5.8,-,N/A,,Clear,280,2013-01-06 13:55:00
8:15 AM,25.2,22.6,90,30.46,10.0,West,4.6,-,N/A,,Clear,280,2013-01-06 14:15:00
8:35 AM,26.4,23.9,90,30.47,10.0,WNW,4.6,-,N/A,,Clear,300,2013-01-06 14:35:00
8:55 AM,28.6,25.5,88,30.47,10.0,NW,5.8,-,N/A,,Clear,310,2013-01-06 14:55:00
9:15 AM,30.2,26.6,86,30.47,10.0,NW,4.6,-,N/A,,Clear,310,2013-01-06 15:15:00
9:35 AM,31.8,27.1,83,30.47,10.0,NNW,4.6,-,N/A,,Clear,330,2013-01-06 15:35:00
9:55 AM,33.3,27.5,79,30.47,10.0,NNW,5.8,-,N/A,,Clear,330,2013-01-06 15:55:00
10:15 AM,34.9,27.1,73,30.47,10.0,NNW,4.6,-,N/A,,Clear,330,2013-01-06 16:15:00
10:35 AM,36.5,27.0,68,30.47,10.0,North,4.6,-,N/A,,Clear,350,2013-01-06 16:35:00
10:55 AM,37.4,26.2,64,30.47,10.0,NNW,3.5,-,N/A,,Clear,330,2013-01-06 16:55:00
11:15 AM,38.3,25.5,60,30.46,10.0,NNW,3.5,-,N/A,,Clear,340,2013-01-06 17:15:00
11:35 AM,39.2,25.3,58,30.45,10.0,North,3.5,-,N/A,,Clear,10,2013-01-06 17:35:00
11:55 AM,40.1,25.7,56,30.44,10.0,Calm,Calm,-,N/A,,Clear,0,2013-01-06 17:55:00
12:15 PM,41.4,26.1,55,30.44,10.0,WSW,3.5,-,N/A,,Clear,250,2013-01-06 18:15:00
12:35 PM,41.9,26.2,54,30.42,10.0,Calm,Calm,-,N/A,,Clear,0,2013-01-06 18:35:00
12:55 PM,42.8,26.2,52,30.41,10.0,Calm,Calm,-,N/A,,Clear,0,2013-01-06 18:55:00
1:15 PM,43.5,27.0,52,30.39,10.0,Calm,Calm,-,N/A,,Clear,0,2013-01-06 19:15:00
1:35 PM,44.2,26.8,50,30.37,10.0,Calm,Calm,-,N/A,,Clear,0,2013-01-06 19:35:00
1:55 PM,44.8,27.3,50,30.37,10.0,Calm,Calm,-,N/A,,Clear,0,2013-01-06 19:55:00
2:15 PM,45.7,27.3,49,30.35,10.0,NNW,3.5,-,N/A,,Clear,330,2013-01-06 20:15:00
3:35 PM,48.9,26.6,42,30.31,10.0,ESE,4.6,-,N/A,,Clear,110,2013-01-06 21:35:00
3:55 PM,49.6,27.3,42,30.30,10.0,ESE,4.6,-,N/A,,Clear,120,2013-01-06 21:55:00
4:15 PM,49.6,27.1,42,30.30,10.0,East,3.5,-,N/A,,Clear,100,2013-01-06 22:15:00
4:35 PM,49.5,26.6,41,30.30,10.0,East,5.8,-,N/A,,Clear,80,2013-01-06 22:35:00
4:55 PM,48.6,27.3,44,30.29,10.0,ESE,6.9,-,N/A,,Clear,110,2013-01-06 22:55:00
5:15 PM,48.6,28.2,45,30.29,10.0,East,6.9,-,N/A,,Clear,100,2013-01-06 23:15:00
5:35 PM,47.3,28.2,48,30.29,10.0,East,4.6,-,N/A,,Clear,100,2013-01-06 23:35:00
5:55 PM,44.4,30.0,57,30.29,10.0,East,5.8,-,N/A,,Clear,100,2013-01-06 23:55:00
6:15 PM,43.0,29.3,59,30.28,10.0,East,4.6,-,N/A,,Clear,100,2013-01-07 00:15:00
6:35 PM,41.9,29.3,61,30.28,10.0,East,5.8,-,N/A,,Clear,100,2013-01-07 00:35:00
7:15 PM,39.4,28.4,65,30.28,10.0,East,6.9,-,N/A,,Clear,90,2013-01-07 01:15:00
7:35 PM,38.3,28.0,67,30.28,10.0,East,6.9,-,N/A,,Clear,80,2013-01-07 01:35:00
7:55 PM,38.3,27.5,65,30.29,10.0,East,3.5,-,N/A,,Clear,90,2013-01-07 01:55:00
8:15 PM,37.8,27.5,67,30.29,10.0,East,5.8,-,N/A,,Clear,100,2013-01-07 02:15:00
8:35 PM,37.2,27.5,68,30.29,10.0,East,4.6,-,N/A,,Clear,100,2013-01-07 02:35:00
8:55 PM,36.5,27.3,69,30.29,10.0,ESE,3.5,-,N/A,,Clear,120,2013-01-07 02:55:00
9:55 PM,33.4,27.5,79,30.27,10.0,SE,4.6,-,N/A,,Clear,140,2013-01-07 03:55:00
10:15 PM,32.2,27.5,83,30.27,10.0,SSE,5.8,-,N/A,,Clear,160,2013-01-07 04:15:00
10:35 PM,32.0,27.9,85,30.26,10.0,South,4.6,-,N/A,,Clear,180,2013-01-07 04:35:00
10:55 PM,32.0,27.9,85,30.25,10.0,Calm,Calm,-,N/A,,Clear,0,2013-01-07 04:55:00
11:35 PM,33.8,28.6,81,30.24,10.0,East,3.5,-,N/A,,Clear,100,2013-01-07 05:35:00
11:55 PM,32.9,28.2,83,30.24,10.0,East,4.6,-,N/A,,Clear,100,2013-01-07 05:55:00